This demonstration page uses our WeatherBlox Daily Observations layout. Learn more.

38.88101, -77.10428

Hourly Observations for June 10, 2019

Temp ( °F °C ) Dew Point ( °F °C ) Humidity (%) Winds ( mph kmh ) Pressure ( in mb ) Visibility ( mi km ) Precip ( " mm )
12:16 am 00:16 Cloudy with Light Drizzle 65 18.3 62 16.7 90 90 NE 9 15 30.1 1019 6 9.65604 0 0.0254
12:52 am 00:52 Cloudy with Light Drizzle 65 18.3 62 16.7 90 90 NE 13 20 30.09 1019 5 8.0467 0 0.0254
1:52 am 01:52 Cloudy with Light Drizzle 65 18.3 62 16.7 90 90 NNE 8 13 30.07 1018 3 4.82802 0 0.0254
2:52 am 02:52 Cloudy with Light Drizzle 64 17.8 62 16.7 93 93 NNE 10 17 30.06 1018 4 6.43736 0.01 0.254
3:52 am 03:52 Cloudy 64 17.8 62 16.7 93 93 NNE 9 15 30.04 1017 9 14.48406 0.01 0.254
4:52 am 04:52 Cloudy with Mist and Fog 64 17.8 62 16.7 93 93 NE 10 17 30.03 1017 4 6.43736 0 0.0254
5:52 am 05:52 Cloudy with Light Drizzle 65 18.3 63 17.2 93 93 NNE 8 13 30.03 1017 3 4.82802 0 0.0254
6:18 am 06:18 Cloudy with Light Drizzle 64 17.8 62 16.7 93 93 N 8 13 30.03 1017 2.5 4.02335 0.01 0.254
6:52 am 06:52 Cloudy with Light Rain 65 18.3 62 16.7 90 90 NNE 10 17 30.03 1017 2.5 4.02335 0.02 0.508
7:52 am 07:52 Cloudy with Light Rain 65 18.3 63 17.2 93 93 NNE 8 13 30.02 1017 2 3.21868 0.05 1.27
8:22 am 08:22 Cloudy 66 18.9 63 17.2 90 90 NNE 8 13 30.02 1017 7 11.26538 0.01 0.254
8:52 am 08:52 Cloudy 66 18.9 64 17.8 93 93 NNE 7 11 30.02 1017 10 16.0934 0.01 0.254
9:52 am 09:52 Cloudy 67 19.4 65 18.3 93 93 NNE 6 9 30 1016 7 11.26538 0 0.0254
10:01 am 10:01 Cloudy with Mist and Fog 67 19.4 65 18.3 93 93 NNE 6 9 30.01 1016 6 9.65604 0 0
10:52 am 10:52 Cloudy with Mist and Fog 68 20 66 18.9 93 93 NNE 7 11 29.99 1016 3 4.82802 0 0.0254
10:59 am 10:59 Cloudy with Light Rain 68 20 66 18.9 93 93 NNE 7 11 29.99 1016 1.75 2.816345 0 0.0254
11:12 am 11:12 Cloudy with Light Rain 69 20.6 66 18.9 90 90 NNE 7 11 29.99 1016 2 3.21868 0.01 0.254
11:29 am 11:29 Cloudy with Heavy Rain 69 20.6 66 18.9 90 90 N 6 9 29.98 1015 1.75 2.816345 0.06 1.524
11:38 am 11:38 Cloudy with Heavy Rain 69 20.6 67 19.4 93 93 N 6 9 29.98 1015 1 1.60934 0.13 3.302
11:52 am 11:52 Cloudy with Rain 69 20.6 67 19.4 93 93 N 7 11 29.97 1015 1 1.60934 0.17 4.318
12:11 pm 12:11 Cloudy with Light Rain 70 21.1 67 19.4 90 90 N 5 7 29.98 1015 2 3.21868 0.03 0.762
12:27 pm 12:27 Cloudy with Light Rain 70 21.1 67 19.4 90 90 N 3 6 29.98 1015 2 3.21868 0.04 1.016
12:38 pm 12:38 Cloudy with Heavy Rain 70 21.1 67 19.4 90 90 N 3 6 29.97 1015 1.5 2.41401 0.07 1.778
12:43 pm 12:43 Cloudy with Rain 70 21.1 67 19.4 90 90 N 3 6 29.97 1015 2 3.21868 0.09 2.286
12:52 pm 12:52 Cloudy with Light Rain 70 21.1 67 19.4 90 90 Calm 29.97 1015 4 6.43736 0.1 2.54
1:08 pm 13:08 Cloudy 71 21.7 68 20 90 90 NNE 3 6 29.96 1015 7 11.26538 0 0.0254
1:52 pm 13:52 Cloudy 73 22.8 68 20 84 84 Calm 29.95 1014 10 16.0934 0 0.0254
2:03 pm 14:03 Cloudy with Nearby Thunderstorms 73 22.8 68 20 84 84 Calm 29.95 1014 10 16.0934 0 0
2:12 pm 14:12 Cloudy 74 23.3 69 20.6 85 85 Calm 29.94 1014 10 16.0934 0 0
2:20 pm 14:20 Cloudy with Nearby Thunderstorms 73 22.8 69 20.6 87 87 VRB 3 6 29.94 1014 10 16.0934 0 0
2:35 pm 14:35 Cloudy 73 22.8 68 20 84 84 Calm 29.93 1013 10 16.0934 0 0
2:52 pm 14:52 Cloudy 74 23.3 69 20.6 85 85 W 6 9 29.93 1014 10 16.0934 0 0
3:52 pm 15:52 Cloudy 75 23.9 69 20.6 82 82 SSE 6 9 29.91 1013 10 16.0934 0 0
4:52 pm 16:52 Mostly Cloudy 75 23.9 69 20.6 82 82 S 9 15 29.89 1012 10 16.0934 0 0
5:50 pm 17:50 Partly Cloudy 75 24 70 21 83 83 S 7 11 29.89 1012 10 16.0934 0 0
5:52 pm 17:52 Mostly Sunny 76 24.4 69 20.6 79 79 SSE 7 11 29.88 1012 10 16.0934 0 0
6:52 pm 18:52 Mostly Cloudy 77 25 68 20 74 74 W 7 11 29.88 1012 10 16.0934 0 0
7:00 pm 19:00 Mostly Cloudy 76 24.4 68 20 77 77 WNW 6 9 29.88 1012 10 16.0934 0 0
7:48 pm 19:48 Cloudy 75 24 66 19 74 74 WNW 6 9 29.87 1011 10 16.0934 0 0
7:52 pm 19:52 Cloudy 75 23.9 67 19.4 76 76 WNW 5 7 29.87 1012 10 16.0934 0 0
8:52 pm 20:52 Mostly Cloudy with Light Rain 74 23.3 67 19.4 79 79 NE 3 6 29.86 1011 10 16.0934 0 0.0254
9:52 pm 21:52 Mostly Cloudy 74 23.3 68 20 82 82 Calm 29.86 1011 10 16.0934 0 0.0254
11:52 pm 23:52 Cloudy with Light Rain 73 22.8 67 19.4 81 81 W 3 6 29.87 1012 10 16.0934 0 0.0254

Powered by AerisWeather